Time,TemperatureF,DewpointF,PressureIn,WindDirection,WindDirectionDegrees,WindSpeedMPH,WindSpeedGustMPH,Humidity,HourlyPrecipIn,Conditions,Clouds,dailyrainin,SoftwareType,DateUTC
2013-03-03 00:00:00,37.2,22.5,30.22,NNW,339,4.0,9.0,55,0.00,,,0.00,Wunderground v.1.15,2013-03-03 06:00:00,
2013-03-03 00:10:00,37.2,22.9,30.22,NNW,346,4.0,4.0,56,0.00,,,0.00,Wunderground v.1.15,2013-03-03 06:10:00,
2013-03-03 00:15:00,37.2,22.9,30.22,North,0,3.0,4.0,56,0.00,,,0.00,Wunderground v.1.15,2013-03-03 06:15:00,
2013-03-03 00:25:00,37.0,22.7,30.22,NW,316,4.0,6.0,56,0.00,,,0.00,Wunderground v.1.15,2013-03-03 06:25:00,
2013-03-03 00:30:00,37.0,22.7,30.21,North,354,4.0,4.0,56,0.00,,,0.00,Wunderground v.1.15,2013-03-03 06:30:00,
2013-03-03 00:40:00,36.9,23.1,30.21,NNW,335,3.0,3.0,57,0.00,,,0.00,Wunderground v.1.15,2013-03-03 06:40:00,
2013-03-03 00:45:00,36.9,23.1,30.22,NW,319,2.0,3.0,57,0.00,,,0.00,Wunderground v.1.15,2013-03-03 06:45:00,
2013-03-03 00:55:00,36.9,23.5,30.22,NNW,347,2.0,2.0,58,0.00,,,0.00,Wunderground v.1.15,2013-03-03 06:55:00,
2013-03-03 01:00:00,36.8,23.0,30.22,NNW,344,3.0,4.0,57,0.00,,,0.00,Wunderground v.1.15,2013-03-03 07:00:00,
2013-03-03 01:10:00,36.6,22.4,30.22,North,357,4.0,6.0,56,0.00,,,0.00,Wunderground v.1.15,2013-03-03 07:10:00,
2013-03-03 01:15:00,36.5,21.4,30.22,North,0,5.0,6.0,54,0.00,,,0.00,Wunderground v.1.15,2013-03-03 07:15:00,
2013-03-03 01:25:00,36.2,21.1,30.22,North,0,4.0,5.0,54,0.00,,,0.00,Wunderground v.1.15,2013-03-03 07:25:00,
2013-03-03 01:30:00,35.9,20.9,30.22,NNW,347,5.0,6.0,54,0.00,,,0.00,Wunderground v.1.15,2013-03-03 07:30:00,
2013-03-03 01:40:00,35.5,20.5,30.22,NNW,336,5.0,6.0,54,0.00,,,0.00,Wunderground v.1.15,2013-03-03 07:40:00,
2013-03-03 01:45:00,35.5,20.5,30.22,North,359,4.0,6.0,54,0.00,,,0.00,Wunderground v.1.15,2013-03-03 07:45:00,
2013-03-03 01:55:00,35.2,20.6,30.22,NNW,340,3.0,3.0,55,0.00,,,0.00,Wunderground v.1.15,2013-03-03 07:55:00,
2013-03-03 02:00:00,34.9,20.4,30.21,NNW,335,2.0,2.0,55,0.00,,,0.00,Wunderground v.1.15,2013-03-03 08:00:00,
2013-03-03 02:10:00,34.4,21.1,30.21,NNW,340,1.0,1.0,58,0.00,,,0.00,Wunderground v.1.15,2013-03-03 08:10:00,
2013-03-03 02:15:00,34.1,20.9,30.20,NNW,336,1.0,1.0,58,0.00,,,0.00,Wunderground v.1.15,2013-03-03 08:15:00,
2013-03-03 02:25:00,33.5,21.1,30.20,NNW,343,1.0,2.0,60,0.00,,,0.00,Wunderground v.1.15,2013-03-03 08:25:00,
2013-03-03 02:30:00,33.4,21.4,30.20,NNW,343,1.0,1.0,61,0.00,,,0.00,Wunderground v.1.15,2013-03-03 08:30:00,
2013-03-03 02:40:00,32.9,21.3,30.20,NNW,342,1.0,1.0,62,0.00,,,0.00,Wunderground v.1.15,2013-03-03 08:40:00,
2013-03-03 02:45:00,32.7,21.1,30.20,NNW,342,1.0,1.0,62,0.00,,,0.00,Wunderground v.1.15,2013-03-03 08:45:00,
2013-03-03 02:55:00,32.5,21.3,30.20,NNW,336,1.0,2.0,63,0.00,,,0.00,Wunderground v.1.15,2013-03-03 08:55:00,
2013-03-03 03:00:00,32.2,21.4,30.20,NNW,337,1.0,1.0,64,0.00,,,0.00,Wunderground v.1.15,2013-03-03 09:00:00,
2013-03-03 03:10:00,31.9,21.1,30.20,NNW,337,0.0,0.0,64,0.00,,,0.00,Wunderground v.1.15,2013-03-03 09:10:00,
2013-03-03 03:15:00,31.6,21.2,30.20,NNW,337,0.0,1.0,65,0.00,,,0.00,Wunderground v.1.15,2013-03-03 09:15:00,
2013-03-03 03:25:00,31.3,20.9,30.20,NNW,337,1.0,1.0,65,0.00,,,0.00,Wunderground v.1.15,2013-03-03 09:25:00,
2013-03-03 03:30:00,31.2,21.2,30.19,NNW,337,1.0,1.0,66,0.00,,,0.00,Wunderground v.1.15,2013-03-03 09:30:00,
2013-03-03 03:40:00,30.9,20.9,30.19,NNW,337,0.0,0.0,66,0.00,,,0.00,Wunderground v.1.15,2013-03-03 09:40:00,
2013-03-03 03:45:00,30.7,21.0,30.19,NNW,337,0.0,0.0,67,0.00,,,0.00,Wunderground v.1.15,2013-03-03 09:45:00,
2013-03-03 03:55:00,30.4,21.1,30.19,NNW,337,0.0,0.0,68,0.00,,,0.00,Wunderground v.1.15,2013-03-03 09:55:00,
2013-03-03 04:00:00,30.1,21.2,30.19,NNW,337,0.0,0.0,69,0.00,,,0.00,Wunderground v.1.15,2013-03-03 10:00:00,
2013-03-03 04:10:00,29.7,21.1,30.19,NNW,337,0.0,0.0,70,0.00,,,0.00,Wunderground v.1.15,2013-03-03 10:10:00,
2013-03-03 04:15:00,29.5,20.9,30.20,NNW,337,0.0,0.0,70,0.00,,,0.00,Wunderground v.1.15,2013-03-03 10:15:00,
2013-03-03 04:25:00,29.3,21.1,30.20,NNW,337,0.0,0.0,71,0.00,,,0.00,Wunderground v.1.15,2013-03-03 10:25:00,
2013-03-03 04:30:00,29.1,20.9,30.19,NNW,337,0.0,0.0,71,0.00,,,0.00,Wunderground v.1.15,2013-03-03 10:30:00,
2013-03-03 04:40:00,29.1,21.2,30.19,NNW,337,0.0,0.0,72,0.00,,,0.00,Wunderground v.1.15,2013-03-03 10:40:00,
2013-03-03 04:45:00,29.1,21.2,30.20,NNW,335,1.0,1.0,72,0.00,,,0.00,Wunderground v.1.15,2013-03-03 10:45:00,
2013-03-03 04:55:00,29.4,21.8,30.20,NNW,335,1.0,1.0,73,0.00,,,0.00,Wunderground v.1.15,2013-03-03 10:55:00,
2013-03-03 05:00:00,29.4,21.8,30.21,NNW,335,1.0,1.0,73,0.00,,,0.00,Wunderground v.1.15,2013-03-03 11:00:00,
2013-03-03 05:10:00,29.3,22.0,30.21,NNW,335,1.0,1.0,74,0.00,,,0.00,Wunderground v.1.15,2013-03-03 11:10:00,
2013-03-03 05:15:00,29.1,21.8,30.22,NNW,335,1.0,1.0,74,0.00,,,0.00,Wunderground v.1.15,2013-03-03 11:15:00,
2013-03-03 05:25:00,29.0,22.1,30.22,NNW,335,1.0,1.0,75,0.00,,,0.00,Wunderground v.1.15,2013-03-03 11:25:00,
2013-03-03 05:30:00,28.8,21.9,30.22,NNW,335,1.0,2.0,75,0.00,,,0.00,Wunderground v.1.15,2013-03-03 11:30:00,
2013-03-03 05:40:00,28.7,22.1,30.22,NNW,335,1.0,1.0,76,0.00,,,0.00,Wunderground v.1.15,2013-03-03 11:40:00,
2013-03-03 05:45:00,28.7,22.1,30.22,NNW,335,1.0,2.0,76,0.00,,,0.00,Wunderground v.1.15,2013-03-03 11:45:00,
2013-03-03 05:55:00,28.4,22.1,30.22,NNW,335,1.0,1.0,77,0.00,,,0.00,Wunderground v.1.15,2013-03-03 11:55:00,
2013-03-03 06:00:00,28.4,22.1,30.23,NNW,335,1.0,1.0,77,0.00,,,0.00,Wunderground v.1.15,2013-03-03 12:00:00,
2013-03-03 06:10:00,28.2,21.9,30.23,NNW,333,1.0,1.0,77,0.00,,,0.00,Wunderground v.1.15,2013-03-03 12:10:00,
2013-03-03 06:15:00,28.1,22.1,30.23,NNW,333,1.0,2.0,78,0.00,,,0.00,Wunderground v.1.15,2013-03-03 12:15:00,
2013-03-03 06:25:00,28.1,22.1,30.23,NNW,339,2.0,2.0,78,0.00,,,0.00,Wunderground v.1.15,2013-03-03 12:25:00,
2013-03-03 06:30:00,28.2,22.2,30.24,NNW,339,1.0,1.0,78,0.00,,,0.00,Wunderground v.1.15,2013-03-03 12:30:00,
2013-03-03 06:40:00,28.2,22.2,30.24,NNW,337,1.0,1.0,78,0.00,,,0.00,Wunderground v.1.15,2013-03-03 12:40:00,
2013-03-03 06:45:00,28.4,22.4,30.24,NNW,337,1.0,2.0,78,0.00,,,0.00,Wunderground v.1.15,2013-03-03 12:45:00,
2013-03-03 06:55:00,28.5,22.5,30.24,NNW,337,1.0,1.0,78,0.00,,,0.00,Wunderground v.1.15,2013-03-03 12:55:00,
2013-03-03 07:00:00,28.7,22.7,30.24,NNW,337,1.0,1.0,78,0.00,,,0.00,Wunderground v.1.15,2013-03-03 13:00:00,
2013-03-03 07:10:00,29.3,23.3,30.24,NNW,337,1.0,1.0,78,0.00,,,0.00,Wunderground v.1.15,2013-03-03 13:10:00,
2013-03-03 07:15:00,29.5,23.5,30.24,NNW,340,1.0,1.0,78,0.00,,,0.00,Wunderground v.1.15,2013-03-03 13:15:00,
2013-03-03 07:25:00,30.6,23.9,30.24,North,0,0.0,0.0,76,0.00,,,0.00,Wunderground v.1.15,2013-03-03 13:25:00,
2013-03-03 07:30:00,31.5,24.5,30.24,North,3,1.0,1.0,75,0.00,,,0.00,Wunderground v.1.15,2013-03-03 13:30:00,
2013-03-03 07:40:00,32.9,24.9,30.24,North,0,0.0,0.0,72,0.00,,,0.00,Wunderground v.1.15,2013-03-03 13:40:00,
2013-03-03 07:45:00,33.5,24.4,30.25,WNW,302,0.0,0.0,69,0.00,,,0.00,Wunderground v.1.15,2013-03-03 13:45:00,
2013-03-03 07:55:00,34.1,23.9,30.25,North,0,0.0,0.0,66,0.00,,,0.00,Wunderground v.1.15,2013-03-03 13:55:00,
2013-03-03 08:00:00,34.6,24.0,30.25,North,11,1.0,1.0,65,0.00,,,0.00,Wunderground v.1.15,2013-03-03 14:00:00,
2013-03-03 08:10:00,35.3,24.3,30.25,North,0,1.0,1.0,64,0.00,,,0.00,Wunderground v.1.15,2013-03-03 14:10:00,
2013-03-03 08:15:00,35.5,24.1,30.25,North,359,2.0,2.0,63,0.00,,,0.00,Wunderground v.1.15,2013-03-03 14:15:00,
2013-03-03 08:25:00,35.8,24.0,30.25,NNW,336,4.0,4.0,62,0.00,,,0.00,Wunderground v.1.15,2013-03-03 14:25:00,
2013-03-03 08:30:00,36.2,24.4,30.26,North,352,3.0,3.0,62,0.00,,,0.00,Wunderground v.1.15,2013-03-03 14:30:00,
2013-03-03 08:40:00,36.6,23.6,30.26,North,0,3.0,3.0,59,0.00,,,0.00,Wunderground v.1.15,2013-03-03 14:40:00,
2013-03-03 08:45:00,36.6,23.6,30.26,North,1,6.0,11.0,59,0.00,,,0.00,Wunderground v.1.15,2013-03-03 14:45:00,
2013-03-03 08:55:00,36.8,23.8,30.26,North,4,6.0,9.0,59,0.00,,,0.00,Wunderground v.1.15,2013-03-03 14:55:00,
2013-03-03 09:00:00,37.3,23.9,30.26,NNW,337,5.0,5.0,58,0.00,,,0.00,Wunderground v.1.15,2013-03-03 15:00:00,
2013-03-03 09:10:00,37.9,23.2,30.26,North,0,2.0,2.0,55,0.00,,,0.00,Wunderground v.1.15,2013-03-03 15:10:00,
2013-03-03 09:15:00,37.6,22.0,30.26,North,0,5.0,5.0,53,0.00,,,0.00,Wunderground v.1.15,2013-03-03 15:15:00,
2013-03-03 09:25:00,38.3,23.1,30.26,North,4,5.0,9.0,54,0.00,,,0.00,Wunderground v.1.15,2013-03-03 15:25:00,
2013-03-03 09:30:00,38.8,22.7,30.25,North,359,5.0,5.0,52,0.00,,,0.00,Wunderground v.1.15,2013-03-03 15:30:00,
2013-03-03 09:40:00,38.8,22.2,30.25,North,0,4.0,4.0,51,0.00,,,0.00,Wunderground v.1.15,2013-03-03 15:40:00,
2013-03-03 09:45:00,39.3,23.1,30.25,NW,313,2.0,4.0,52,0.00,,,0.00,Wunderground v.1.15,2013-03-03 15:45:00,
2013-03-03 09:55:00,40.1,22.9,30.25,NNW,340,2.0,4.0,50,0.00,,,0.00,Wunderground v.1.15,2013-03-03 15:55:00,
2013-03-03 10:00:00,40.3,22.1,30.25,NW,315,3.0,10.0,48,0.00,,,0.00,Wunderground v.1.15,2013-03-03 16:00:00,
2013-03-03 10:10:00,40.5,21.8,30.25,NNW,346,6.0,6.0,47,0.00,,,0.00,Wunderground v.1.15,2013-03-03 16:10:00,
2013-03-03 10:15:00,40.8,21.6,30.24,NNW,339,5.0,10.0,46,0.00,,,0.00,Wunderground v.1.15,2013-03-03 16:15:00,
2013-03-03 10:25:00,40.8,21.1,30.24,NW,308,6.0,8.0,45,0.00,,,0.00,Wunderground v.1.15,2013-03-03 16:25:00,
2013-03-03 10:30:00,41.1,22.4,30.24,WNW,295,5.0,5.0,47,0.00,,,0.00,Wunderground v.1.15,2013-03-03 16:30:00,
2013-03-03 10:40:00,42.1,21.7,30.24,WNW,302,5.0,9.0,44,0.00,,,0.00,Wunderground v.1.15,2013-03-03 16:40:00,
2013-03-03 10:45:00,42.2,22.4,30.23,North,0,3.0,9.0,45,0.00,,,0.00,Wunderground v.1.15,2013-03-03 16:45:00,
2013-03-03 10:55:00,42.6,21.6,30.23,WNW,299,3.0,7.0,43,0.00,,,0.00,Wunderground v.1.15,2013-03-03 16:55:00,
2013-03-03 11:00:00,42.8,22.4,30.23,NNW,329,6.0,10.0,44,0.00,,,0.00,Wunderground v.1.15,2013-03-03 17:00:00,
2013-03-03 11:10:00,43.5,22.5,30.23,North,3,7.0,9.0,43,0.00,,,0.00,Wunderground v.1.15,2013-03-03 17:10:00,
2013-03-03 11:15:00,43.8,21.6,30.23,NW,313,7.0,9.0,41,0.00,,,0.00,Wunderground v.1.15,2013-03-03 17:15:00,
2013-03-03 11:25:00,44.1,21.3,30.23,North,359,6.0,8.0,40,0.00,,,0.00,Wunderground v.1.15,2013-03-03 17:25:00,
2013-03-03 11:30:00,44.2,20.2,30.22,NNW,330,4.0,6.0,38,0.00,,,0.00,Wunderground v.1.15,2013-03-03 17:30:00,
2013-03-03 11:40:00,44.9,19.5,30.22,North,352,6.0,6.0,36,0.00,,,0.00,Wunderground v.1.15,2013-03-03 17:40:00,
2013-03-03 11:45:00,45.2,19.8,30.21,North,0,5.0,9.0,36,0.00,,,0.00,Wunderground v.1.15,2013-03-03 17:45:00,
2013-03-03 11:55:00,46.2,20.0,30.21,North,0,5.0,11.0,35,0.00,,,0.00,Wunderground v.1.15,2013-03-03 17:55:00,
2013-03-03 12:00:00,46.1,19.9,30.21,North,0,3.0,3.0,35,0.00,,,0.00,Wunderground v.1.15,2013-03-03 18:00:00,
2013-03-03 12:10:00,46.4,20.2,30.21,North,0,0.0,0.0,35,0.00,,,0.00,Wunderground v.1.15,2013-03-03 18:10:00,
2013-03-03 12:15:00,47.0,19.3,30.20,North,359,0.0,0.0,33,0.00,,,0.00,Wunderground v.1.15,2013-03-03 18:15:00,
2013-03-03 12:25:00,48.0,20.2,30.20,North,0,0.0,0.0,33,0.00,,,0.00,Wunderground v.1.15,2013-03-03 18:25:00,
2013-03-03 12:30:00,47.9,19.4,30.19,WNW,301,0.0,0.0,32,0.00,,,0.00,Wunderground v.1.15,2013-03-03 18:30:00,
2013-03-03 12:40:00,47.7,19.2,30.19,North,0,0.0,0.0,32,0.00,,,0.00,Wunderground v.1.15,2013-03-03 18:40:00,
2013-03-03 12:45:00,47.6,18.4,30.18,North,4,3.0,3.0,31,0.00,,,0.00,Wunderground v.1.15,2013-03-03 18:45:00,
2013-03-03 12:55:00,48.8,18.7,30.18,NW,325,0.0,3.0,30,0.00,,,0.00,Wunderground v.1.15,2013-03-03 18:55:00,
2013-03-03 13:00:00,49.6,20.2,30.18,NW,326,0.0,0.0,31,0.00,,,0.00,Wunderground v.1.15,2013-03-03 19:00:00,
2013-03-03 13:10:00,50.5,20.2,30.18,NNW,332,0.0,0.0,30,0.00,,,0.00,Wunderground v.1.15,2013-03-03 19:10:00,
2013-03-03 13:15:00,50.2,18.3,30.17,NNW,344,0.0,0.0,28,0.00,,,0.00,Wunderground v.1.15,2013-03-03 19:15:00,
2013-03-03 13:25:00,49.8,18.0,30.17,North,0,0.0,0.0,28,0.00,,,0.00,Wunderground v.1.15,2013-03-03 19:25:00,
2013-03-03 13:30:00,50.4,18.5,30.16,WNW,295,0.0,0.0,28,0.00,,,0.00,Wunderground v.1.15,2013-03-03 19:30:00,
2013-03-03 13:40:00,50.7,17.9,30.16,North,0,0.0,0.0,27,0.00,,,0.00,Wunderground v.1.15,2013-03-03 19:40:00,
2013-03-03 13:45:00,50.5,18.6,30.16,North,354,0.0,0.0,28,0.00,,,0.00,Wunderground v.1.15,2013-03-03 19:45:00,
2013-03-03 13:55:00,51.0,19.0,30.16,NNW,335,0.0,0.0,28,0.00,,,0.00,Wunderground v.1.15,2013-03-03 19:55:00,
2013-03-03 14:00:00,51.1,19.1,30.15,North,0,0.0,0.0,28,0.00,,,0.00,Wunderground v.1.15,2013-03-03 20:00:00,
2013-03-03 14:10:00,51.7,20.4,30.15,WNW,294,0.0,0.0,29,0.00,,,0.00,Wunderground v.1.15,2013-03-03 20:10:00,
2013-03-03 14:15:00,52.6,19.5,30.16,North,0,0.0,0.0,27,0.00,,,0.00,Wunderground v.1.15,2013-03-03 20:15:00,
2013-03-03 14:25:00,52.6,19.5,30.16,North,359,0.0,0.0,27,0.00,,,0.00,Wunderground v.1.15,2013-03-03 20:25:00,
2013-03-03 14:30:00,52.9,19.8,30.15,North,0,0.0,0.0,27,0.00,,,0.00,Wunderground v.1.15,2013-03-03 20:30:00,
2013-03-03 14:40:00,52.6,19.5,30.15,North,359,0.0,0.0,27,0.00,,,0.00,Wunderground v.1.15,2013-03-03 20:40:00,
2013-03-03 14:45:00,52.6,19.5,30.15,North,0,0.0,0.0,27,0.00,,,0.00,Wunderground v.1.15,2013-03-03 20:45:00,
2013-03-03 14:55:00,53.3,20.1,30.15,NW,318,0.0,0.0,27,0.00,,,0.00,Wunderground v.1.15,2013-03-03 20:55:00,
2013-03-03 15:00:00,53.3,20.1,30.16,North,356,0.0,0.0,27,0.00,,,0.00,Wunderground v.1.15,2013-03-03 21:00:00,
2013-03-03 15:10:00,53.3,19.2,30.16,NNW,337,0.0,0.0,26,0.00,,,0.00,Wunderground v.1.15,2013-03-03 21:10:00,
2013-03-03 15:15:00,53.6,20.4,30.15,North,0,0.0,0.0,27,0.00,,,0.00,Wunderground v.1.15,2013-03-03 21:15:00,
2013-03-03 15:24:00,53.9,20.6,30.15,NW,320,0.0,0.0,27,0.00,,,0.00,Wunderground v.1.15,2013-03-03 21:24:00,
2013-03-03 15:30:00,54.1,20.8,30.15,NW,322,0.0,0.0,27,0.00,,,0.00,Wunderground v.1.15,2013-03-03 21:30:00,
2013-03-03 15:40:00,53.9,20.6,30.15,WNW,295,0.0,0.0,27,0.00,,,0.00,Wunderground v.1.15,2013-03-03 21:40:00,
2013-03-03 15:45:00,54.1,20.8,30.15,WNW,294,0.0,0.0,27,0.00,,,0.00,Wunderground v.1.15,2013-03-03 21:45:00,
2013-03-03 15:55:00,53.9,20.6,30.15,WNW,284,0.0,1.0,27,0.00,,,0.00,Wunderground v.1.15,2013-03-03 21:55:00,
2013-03-03 16:00:00,53.6,20.4,30.16,NW,309,0.0,0.0,27,0.00,,,0.00,Wunderground v.1.15,2013-03-03 22:00:00,
2013-03-03 16:10:00,53.8,20.6,30.16,NNW,336,0.0,0.0,27,0.00,,,0.00,Wunderground v.1.15,2013-03-03 22:10:00,
2013-03-03 16:15:00,53.9,21.5,30.16,WNW,296,0.0,0.0,28,0.00,,,0.00,Wunderground v.1.15,2013-03-03 22:15:00,
2013-03-03 16:25:00,53.9,21.5,30.16,North,352,0.0,0.0,28,0.00,,,0.00,Wunderground v.1.15,2013-03-03 22:25:00,
2013-03-03 16:30:00,53.9,21.5,30.16,NNW,330,0.0,0.0,28,0.00,,,0.00,Wunderground v.1.15,2013-03-03 22:30:00,
2013-03-03 16:40:00,53.6,21.2,30.16,North,357,0.0,0.0,28,0.00,,,0.00,Wunderground v.1.15,2013-03-03 22:40:00,
2013-03-03 16:45:00,53.5,20.3,30.16,WNW,302,0.0,0.0,27,0.00,,,0.00,Wunderground v.1.15,2013-03-03 22:45:00,
2013-03-03 16:55:00,52.8,20.5,30.16,North,349,0.0,0.0,28,0.00,,,0.00,Wunderground v.1.15,2013-03-03 22:55:00,
2013-03-03 17:00:00,52.8,20.5,30.16,NW,318,0.0,0.0,28,0.00,,,0.00,Wunderground v.1.15,2013-03-03 23:00:00,
2013-03-03 17:10:00,52.3,20.1,30.16,NNW,336,0.0,0.0,28,0.00,,,0.00,Wunderground v.1.15,2013-03-03 23:10:00,
2013-03-03 17:15:00,52.0,19.9,30.16,NW,311,0.0,0.0,28,0.00,,,0.00,Wunderground v.1.15,2013-03-03 23:15:00,
2013-03-03 17:25:00,51.3,19.3,30.16,NNW,328,0.0,0.0,28,0.00,,,0.00,Wunderground v.1.15,2013-03-03 23:25:00,
2013-03-03 17:30:00,50.8,19.6,30.16,NNW,335,0.0,0.0,29,0.00,,,0.00,Wunderground v.1.15,2013-03-03 23:30:00,
2013-03-03 17:40:00,50.2,21.4,30.16,NNW,335,0.0,0.0,32,0.00,,,0.00,Wunderground v.1.15,2013-03-03 23:40:00,
2013-03-03 17:45:00,49.5,22.9,30.17,NNW,335,0.0,0.0,35,0.00,,,0.00,Wunderground v.1.15,2013-03-03 23:45:00,
2013-03-03 17:55:00,48.2,23.1,30.17,NNW,335,0.0,0.0,37,0.00,,,0.00,Wunderground v.1.15,2013-03-03 23:55:00,
2013-03-03 18:00:00,47.4,24.3,30.17,NNW,335,0.0,0.0,40,0.00,,,0.00,Wunderground v.1.15,2013-03-04 00:00:00,
2013-03-03 18:10:00,46.4,25.1,30.17,NNW,335,0.0,0.0,43,0.00,,,0.00,Wunderground v.1.15,2013-03-04 00:10:00,
2013-03-03 18:15:00,45.7,26.1,30.17,NNW,335,0.0,0.0,46,0.00,,,0.00,Wunderground v.1.15,2013-03-04 00:15:00,
2013-03-03 18:25:00,44.5,28.0,30.17,NNW,335,0.0,0.0,52,0.00,,,0.00,Wunderground v.1.15,2013-03-04 00:25:00,
2013-03-03 18:30:00,43.8,28.2,30.17,NNW,335,0.0,0.0,54,0.00,,,0.00,Wunderground v.1.15,2013-03-04 00:30:00,
2013-03-03 18:40:00,42.6,26.6,30.17,NNW,335,0.0,0.0,53,0.00,,,0.00,Wunderground v.1.15,2013-03-04 00:40:00,
2013-03-03 18:45:00,42.2,27.2,30.17,NNW,335,0.0,0.0,55,0.00,,,0.00,Wunderground v.1.15,2013-03-04 00:45:00,
2013-03-03 18:55:00,41.5,27.0,30.17,NNW,335,0.0,0.0,56,0.00,,,0.00,Wunderground v.1.15,2013-03-04 00:55:00,
2013-03-03 19:00:00,41.1,27.4,30.18,NNW,335,0.0,0.0,58,0.00,,,0.00,Wunderground v.1.15,2013-03-04 01:00:00,
2013-03-03 19:10:00,40.3,26.7,30.18,NNW,335,0.0,0.0,58,0.00,,,0.00,Wunderground v.1.15,2013-03-04 01:10:00,
2013-03-03 19:15:00,40.1,26.9,30.19,NNW,335,0.0,0.0,59,0.00,,,0.00,Wunderground v.1.15,2013-03-04 01:15:00,
2013-03-03 19:25:00,39.6,27.6,30.19,NW,320,0.0,0.0,62,0.00,,,0.00,Wunderground v.1.15,2013-03-04 01:25:00,
2013-03-03 19:30:00,39.3,28.1,30.19,NW,320,0.0,0.0,64,0.00,,,0.00,Wunderground v.1.15,2013-03-04 01:30:00,
2013-03-03 19:40:00,39.1,28.7,30.19,NW,320,0.0,0.0,66,0.00,,,0.00,Wunderground v.1.15,2013-03-04 01:40:00,
2013-03-03 19:45:00,38.9,29.2,30.19,NW,320,0.0,0.0,68,0.00,,,0.00,Wunderground v.1.15,2013-03-04 01:45:00,
2013-03-03 19:55:00,38.5,29.2,30.19,NW,320,0.0,0.0,69,0.00,,,0.00,Wunderground v.1.15,2013-03-04 01:55:00,
2013-03-03 20:00:00,38.3,29.4,30.19,NW,320,0.0,0.0,70,0.00,,,0.00,Wunderground v.1.15,2013-03-04 02:00:00,
2013-03-03 20:10:00,38.0,29.4,30.19,NW,320,0.0,0.0,71,0.00,,,0.00,Wunderground v.1.15,2013-03-04 02:10:00,
2013-03-03 20:15:00,37.9,29.7,30.19,NW,320,0.0,0.0,72,0.00,,,0.00,Wunderground v.1.15,2013-03-04 02:15:00,
2013-03-03 20:25:00,37.5,29.6,30.19,NW,320,0.0,0.0,73,0.00,,,0.00,Wunderground v.1.15,2013-03-04 02:25:00,
2013-03-03 20:30:00,37.3,29.8,30.20,NW,320,0.0,0.0,74,0.00,,,0.00,Wunderground v.1.15,2013-03-04 02:30:00,
2013-03-03 20:40:00,37.2,30.3,30.20,NW,320,0.0,0.0,76,0.00,,,0.00,Wunderground v.1.15,2013-03-04 02:40:00,
2013-03-03 20:45:00,37.2,30.7,30.19,NW,320,0.0,0.0,77,0.00,,,0.00,Wunderground v.1.15,2013-03-04 02:45:00,
2013-03-03 20:55:00,36.9,30.7,30.19,NW,320,0.0,0.0,78,0.00,,,0.00,Wunderground v.1.15,2013-03-04 02:55:00,
2013-03-03 21:00:00,36.9,30.7,30.20,NW,320,0.0,0.0,78,0.00,,,0.00,Wunderground v.1.15,2013-03-04 03:00:00,
2013-03-03 21:10:00,36.6,30.7,30.20,NW,320,0.0,0.0,79,0.00,,,0.00,Wunderground v.1.15,2013-03-04 03:10:00,
2013-03-03 21:15:00,36.6,31.0,30.20,NW,320,0.0,0.0,80,0.00,,,0.00,Wunderground v.1.15,2013-03-04 03:15:00,
2013-03-03 21:25:00,36.5,31.2,30.20,NW,320,0.0,0.0,81,0.00,,,0.00,Wunderground v.1.15,2013-03-04 03:25:00,
2013-03-03 21:30:00,36.3,31.3,30.20,NW,320,0.0,0.0,82,0.00,,,0.00,Wunderground v.1.15,2013-03-04 03:30:00,
2013-03-03 21:40:00,36.2,31.2,30.20,NW,320,0.0,0.0,82,0.00,,,0.00,Wunderground v.1.15,2013-03-04 03:40:00,
2013-03-03 21:45:00,36.0,31.0,30.20,NW,320,0.0,0.0,82,0.00,,,0.00,Wunderground v.1.15,2013-03-04 03:45:00,
2013-03-03 21:55:00,35.9,31.2,30.20,NW,320,0.0,0.0,83,0.00,,,0.00,Wunderground v.1.15,2013-03-04 03:55:00,
2013-03-03 22:00:00,35.9,31.5,30.20,NW,320,0.0,0.0,84,0.00,,,0.00,Wunderground v.1.15,2013-03-04 04:00:00,
2013-03-03 22:10:00,35.6,31.2,30.20,NW,320,0.0,0.0,84,0.00,,,0.00,Wunderground v.1.15,2013-03-04 04:10:00,
2013-03-03 22:15:00,35.5,31.1,30.20,NW,320,0.0,0.0,84,0.00,,,0.00,Wunderground v.1.15,2013-03-04 04:15:00,
2013-03-03 22:25:00,35.3,31.2,30.20,NW,320,0.0,0.0,85,0.00,,,0.00,Wunderground v.1.15,2013-03-04 04:25:00,
2013-03-03 22:30:00,35.3,31.2,30.19,NW,320,0.0,0.0,85,0.00,,,0.00,Wunderground v.1.15,2013-03-04 04:30:00,
2013-03-03 22:40:00,35.3,31.5,30.19,NW,320,0.0,0.0,86,0.00,,,0.00,Wunderground v.1.15,2013-03-04 04:40:00,
2013-03-03 22:45:00,35.3,31.5,30.19,NW,320,0.0,0.0,86,0.00,,,0.00,Wunderground v.1.15,2013-03-04 04:45:00,
2013-03-03 22:55:00,35.0,31.2,30.19,NW,320,0.0,0.0,86,0.00,,,0.00,Wunderground v.1.15,2013-03-04 04:55:00,
2013-03-03 23:00:00,35.0,31.5,30.18,NW,320,0.0,0.0,87,0.00,,,0.00,Wunderground v.1.15,2013-03-04 05:00:00,
2013-03-03 23:05:00,35.0,31.5,30.18,NW,320,0.0,0.0,87,0.00,,,0.00,Wunderground v.1.15,2013-03-04 05:05:00,
2013-03-03 23:10:00,34.9,31.4,30.18,NW,320,0.0,0.0,87,0.00,,,0.00,Wunderground v.1.15,2013-03-04 05:10:00,
2013-03-03 23:15:00,35.0,31.5,30.17,NW,320,0.0,0.0,87,0.00,,,0.00,Wunderground v.1.15,2013-03-04 05:15:00,
2013-03-03 23:25:00,34.9,31.7,30.17,NW,320,0.0,0.0,88,0.00,,,0.00,Wunderground v.1.15,2013-03-04 05:25:00,
2013-03-03 23:30:00,34.9,31.7,30.17,NW,320,0.0,0.0,88,0.00,,,0.00,Wunderground v.1.15,2013-03-04 05:30:00,
2013-03-03 23:40:00,34.7,31.5,30.17,NW,320,0.0,0.0,88,0.00,,,0.00,Wunderground v.1.15,2013-03-04 05:40:00,
2013-03-03 23:45:00,34.7,31.5,30.17,NW,320,0.0,0.0,88,0.00,,,0.00,Wunderground v.1.15,2013-03-04 05:45:00,
2013-03-03 23:55:00,34.4,31.2,30.17,NW,320,0.0,0.0,88,0.00,,,0.00,Wunderground v.1.15,2013-03-04 05:55:00,